Stations météo

Publicité
Beauvais, France (7055): Température de l'air & dewpoint: 10.02.2019 18:00:00 - 16.02.2019 18:00:00 (CET)Beauvais, France (7055): Température de l'air 5cm: 10.02.2019 18:00:00 - 16.02.2019 18:00:00 (CET)Beauvais, France (7055): Température de l'air -20cm & Température de l'air -100cm: 10.02.2019 18:00:00 - 16.02.2019 18:00:00 (CET)Beauvais, France (7055): Vitesse du vent & gusts: 10.02.2019 18:00:00 - 16.02.2019 18:00:00 (CET)Beauvais, France (7055): Direction du vent: 10.02.2019 18:00:00 - 16.02.2019 18:00:00 (CET)Beauvais, France (7055): reduced air pressure: 10.02.2019 18:00:00 - 16.02.2019 18:00:00 (CET)Beauvais, France (7055): visibility: 10.02.2019 18:00:00 - 16.02.2019 18:00:00 (CET)Beauvais, France (7055): Ensoleillement: 10.02.2019 18:00:00 - 16.02.2019 18:00:00 (CET)Beauvais, France (7055): Quantités de précipitations: 10.02.2019 18:00:00 - 16.02.2019 18:00:00 (CET)
Date & Time tt [°C] td [°C] tt 5cm [°C] tt -20cm [°C] tt -100cm [°C] ff [km/h] ff [knt] fx [km/h] fx [knt] dd ppp [hPa] vv [km] sd [min] rr [mm]
16.02.2019 18:00:00 10,7 3,7 6,7 5,1 7,0 5 3 13 7 SE 1024,4 20 7 0,0
16.02.2019 17:00:00 13,6 6,0 14,4 5,1 7,0 9 5 17 9 SSE 1024,7 20 46 0,0
16.02.2019 16:00:00 14,9 4,6 17,0 5,0 7,0 10 5 18 10 SSW 1025,1 20 51 0,0
16.02.2019 15:00:00 14,6 4,0 17,4 5,1 7,0 11 6 16 9 SSW 1025,6 19 46 0,0
16.02.2019 14:00:00 14,5 5,3 19,3 5,1 7,0 11 6 16 9 SW 1026,0 14 60 0,0
16.02.2019 13:00:00 12,5 6,3 16,7 5,1 7,0 6 3 9 5 SE 1026,6 13 60 0,0
16.02.2019 12:00:00 9,8 5,4 15,4 5,2 7,0 5 3 8 4 SE 1027,2 11 60 0,0
16.02.2019 11:00:00 6,4 4,2 10,9 5,2 7,0 0 0 5 3 N 1027,6 8 60 0,0
16.02.2019 10:00:00 3,5 3,5 2,8 5,2 7,0 0 0 6 3 N 1027,4 4,2 60 0,0
16.02.2019 09:00:00 0,7 0,7 -6,3 5,3 7,0 2 1 4 2 E 1027,5 2,4 20 0,0
16.02.2019 08:00:00 -2,3 -2,6 -6,4 5,3 7,0 3 1 4 2 ESE 1027,2 0,1 0 0,0
16.02.2019 07:00:00 -1,7 -2,0 -6,7 5,4 7,1 0 0 4 2 N 1026,9 0,2 0 0,0
16.02.2019 06:00:00 -2,1 -2,8 -6,6 5,4 7,1 0 0 2 1 N 1026,8 0,1 0 0,0
16.02.2019 05:00:00 -1,2 -1,6 -6,4 5,4 7,1 0 0 3 2 N 1026,7 0,2 0 0,0
16.02.2019 04:00:00 -1,5 -2,2 -6,6 5,4 7,1 0 0 3 1 N 1026,8 2,0 0 0,0
16.02.2019 03:00:00 -2,0 -3,1 -5,9 5,4 7,1 0 0 4 2 N 1027,1 5 0 0,0
16.02.2019 02:00:00 -1,2 -2,3 -5,6 5,4 7,1 0 0 4 2 N 1027,4 4,7 0 0,0
16.02.2019 01:00:00 -1,3 -2,6 -4,9 5,4 7,1 0 0 3 2 N 1027,5 6 0 0,0
16.02.2019 00:00:00 0,9 0,0 -4,4 5,3 7,1 0 0 2 1 N 1027,4 8 0 0,0
15.02.2019 23:00:00 1,2 -0,3 -3,7 5,3 7,1 2 1 6 3 ESE 1027,3 9 0 0,0
15.02.2019 22:00:00 1,7 -0,7 -2,6 5,2 7,1 0 0 3 2 N 1027,3 10 0 0,0
15.02.2019 21:00:00 3,2 0,6 -2,3 5,2 7,1 0 0 4 2 N 1027,3 13 0 0,0
15.02.2019 20:00:00 4,0 1,0 -1,6 5,2 7,1 0 0 4 2 N 1027,6 14 0 0,0
15.02.2019 19:00:00 8,1 2,5 0,2 5,1 7,1 0 0 6 3 N 1027,4 17 0 0,0
15.02.2019 18:00:00 12,2 2,9 8,0 5,1 7,1 4 2 8 5 SE 1027,1 18 11 0,0
15.02.2019 17:00:00 14,3 5,1 15,6 5,1 7,1 5 3 10 6 S 1027,2 16 60 0,0
15.02.2019 16:00:00 14,1 3,8 16,6 5,1 7,1 10 5 14 7 ESE 1027,6 17 60 0,0
15.02.2019 15:00:00 13,9 4,5 17,4 5,1 7,1 10 5 18 10 SE 1027,8 18 60 0,0
15.02.2019 14:00:00 12,6 4,0 16,5 5,1 7,1 10 5 18 10 SE 1028,7 19 60 0,0
15.02.2019 13:00:00 10,2 2,1 13,9 5,1 7,1 7 4 16 9 ESE 1029,5 19 60 0,0
15.02.2019 12:00:00 8,0 2,4 11,4 5,2 7,1 10 6 14 8 SE 1030,2 17 60 0,0
15.02.2019 11:00:00 6,2 2,1 8,7 5,2 7,1 9 5 13 7 ESE 1030,5 13 60 0,0
15.02.2019 10:00:00 3,6 3,2 4,6 5,2 7,1 4 2 8 5 ESE 1030,8 8 60 0,0
15.02.2019 09:00:00 0,3 0,2 -5,6 5,3 7,1 4 2 8 4 ENE 1031,1 6 19 0,0
15.02.2019 08:00:00 -0,9 -1,0 -7,1 5,3 7,1 0 0 3 2 N 1031,2 1,0 0 0,0
15.02.2019 07:00:00 -1,0 -1,4 -6,7 5,3 7,1 3 2 4 2 SE 1030,9 0,3 0 0,0
15.02.2019 06:00:00 -1,2 -1,6 -6,5 5,4 7,1 0 0 4 2 N 1030,8 2,0 0 0,0
15.02.2019 05:00:00 -0,4 -0,7 -6,1 5,4 7,1 4 2 7 4 ENE 1030,8 3,9 0 0,0
15.02.2019 04:00:00 -1,2 -1,8 -5,6 5,4 7,2 2 1 5 3 NNE 1031,0 4,2 0 0,0
15.02.2019 03:00:00 0,1 -0,3 -5,1 5,4 7,2 3 2 4 2 ENE 1031,3 3,3 0 0,0
15.02.2019 02:00:00 -0,2 -1,2 -5,2 5,4 7,2 0 0 7 4 N 1031,5 4,5 0 0,0
15.02.2019 01:00:00 1,5 0,8 -3,7 5,4 7,2 8 4 8 4 ENE 1031,6 8 0 0,0
15.02.2019 00:00:00 2,2 1,8 -4,4 5,4 7,2 5 3 5 3 ENE 1031,7 7 0 0,0
14.02.2019 23:00:00 1,9 1,2 -3,1 5,4 7,2 4 2 9 5 ENE 1032,0 7 0 0,0
14.02.2019 22:00:00 2,8 1,5 -2,3 5,3 7,2 0 0 13 7 N 1032,0 6 0 0,0
14.02.2019 21:00:00 4,8 3,8 -1,6 5,3 7,2 8 4 13 7 E 1032,1 11 0 0,0
14.02.2019 20:00:00 2,6 0,8 -0,6 5,3 7,2 10 5 14 7 ENE 1032,3 10 0 0,0
14.02.2019 19:00:00 4,4 1,9 1,4 5,2 7,2 10 6 13 7 ENE 1032,2 16 0 0,0
14.02.2019 18:00:00 8,1 4,5 4,9 5,2 7,2 8 4 14 7 ENE 1032,0 18 0 0,0
14.02.2019 17:00:00 10,2 4,6 11,3 5,2 7,2 6 4 18 10 E 1031,8 19 50 0,0
14.02.2019 16:00:00 10,6 3,8 13,2 5,2 7,2 9 5 14 8 E 1032,4 17 54 0,0
14.02.2019 15:00:00 10,1 3,6 13,4 5,2 7,2 8 4 17 9 E 1033,1 17 60 0,0
14.02.2019 14:00:00 8,8 3,2 11,9 5,3 7,2 8 4 11 6 ESE 1033,6 18 56 0,0
14.02.2019 13:00:00 6,8 2,3 11,5 5,3 7,2 7 4 12 6 ENE 1034,5 12 52 0,0
14.02.2019 12:00:00 5,2 2,0 8,7 5,4 7,2 7 4 13 7 ESE 1035,0 12 60 0,0
14.02.2019 11:00:00 3,4 1,8 6,2 5,4 7,2 4 2 10 5 ESE 1035,0 7 60 0,0
14.02.2019 10:00:00 1,3 1,2 0,1 5,4 7,2 6 4 11 6 E 1035,1 4,4 60 0,0
14.02.2019 09:00:00 -0,8 -0,9 -6,6 5,5 7,2 3 2 5 3 E 1035,2 1,0 17 0,0
14.02.2019 08:00:00 -2,2 -2,5 -6,6 5,5 7,2 0 0 4 2 N 1034,9 0,7 0 0,0
14.02.2019 07:00:00 -2,5 -2,9 -6,8 5,5 7,2 0 0 6 3 N 1034,9 3,5 0 0,0
14.02.2019 06:00:00 -1,5 -1,8 -6,0 5,6 7,2 4 2 6 3 NNE 1034,9 2,5 0 0,0
14.02.2019 05:00:00 -1,4 -1,8 -5,8 5,6 7,2 0 0 11 6 N 1034,7 0,3 0 0,0
14.02.2019 04:00:00 -1,0 -1,3 -5,5 5,6 7,2 10 6 11 6 ENE 1034,4 3,5 0 0,0
14.02.2019 03:00:00 -1,1 -1,5 -6,0 5,6 7,2 4 2 8 4 NNE 1034,7 0,4 0 0,0
14.02.2019 02:00:00 -1,5 -2,2 -5,8 5,6 7,3 2 1 3 2 ESE 1035,0 0,2 0 0,0
14.02.2019 01:00:00 -0,4 -0,8 -5,8 5,6 7,3 0 0 5 3 N 1035,3 0,2 0 0,0
14.02.2019 00:00:00 0,4 -0,3 -4,1 5,6 7,3 5 3 7 4 E 1035,0 1,2 0 0,0
13.02.2019 23:00:00 1,0 0,1 -3,2 5,6 7,3 5 3 14 8 ESE 1035,4 4,9 0 0,0
13.02.2019 22:00:00 1,4 0,1 -2,9 5,6 7,3 4 2 13 7 E 1035,8 13 0 0,0
13.02.2019 21:00:00 2,6 1,3 -3,1 5,6 7,3 5 3 14 7 E 1035,7 16 0 0,0
13.02.2019 20:00:00 1,7 0,1 -1,5 5,6 7,3 6 4 18 10 E 1035,3 16 0 0,0
13.02.2019 19:00:00 2,5 0,6 -0,6 5,6 7,3 8 4 13 7 E 1035,3 15 0 0,0
13.02.2019 18:00:00 5,8 1,7 2,8 5,6 7,3 5 3 10 6 ESE 1035,2 19 0 0,0
13.02.2019 17:00:00 7,2 2,1 8,0 5,6 7,3 9 5 16 9 ESE 1035,0 20 47 0,0
13.02.2019 16:00:00 7,8 2,3 10,0 5,6 7,3 12 7 17 9 SE 1035,0 18 60 0,0
13.02.2019 15:00:00 7,4 2,7 11,0 5,6 7,3 8 4 13 7 ESE 1035,5 18 60 0,0
13.02.2019 14:00:00 4,8 3,8 9,1 5,7 7,3 6 3 11 6 ESE 1036,3 12 60 0,0
13.02.2019 13:00:00 2,9 2,9 2,6 5,7 7,3 5 3 13 7 ESE 1037,0 1,8 28 0,0
13.02.2019 12:00:00 0,3 0,3 0,7 5,8 7,3 8 5 13 7 SE 1037,7 0,1 0 0,0
13.02.2019 11:00:00 -0,7 -0,8 -0,2 5,8 7,3 8 4 11 6 ESE 1037,6 - 0 0,0
13.02.2019 10:00:00 -1,2 -1,3 -0,9 5,8 7,3 7 4 10 5 ESE 1037,7 0,1 9 0,0
13.02.2019 09:00:00 -1,5 -1,6 -1,7 5,9 7,3 5 3 10 6 E 1037,5 0,1 15 0,0
13.02.2019 08:00:00 -1,8 -1,9 -2,6 5,9 7,3 8 4 11 6 ESE 1037,2 0,1 0 0,0
13.02.2019 07:00:00 -2,0 -2,3 -7,2 5,9 7,3 4 2 7 4 ESE 1037,1 0,1 0 0,0
13.02.2019 06:00:00 -1,9 -2,3 -6,8 6,0 7,3 0 0 5 3 N 1037,3 0,2 0 0,0
13.02.2019 05:00:00 -1,6 -2,2 -6,5 6,0 7,3 3 2 5 3 ESE 1037,2 0,3 0 0,0
13.02.2019 04:00:00 -1,0 -1,6 -5,9 6,0 7,3 2 1 9 5 E 1037,2 3,4 0 0,0
13.02.2019 03:00:00 -1,1 -1,8 -6,2 6,1 7,3 6 4 8 4 ESE 1037,5 4,0 0 0,0
13.02.2019 02:00:00 -0,7 -2,0 -5,4 6,1 7,3 4 2 7 4 ESE 1037,4 10 0 0,0
13.02.2019 01:00:00 0,5 -0,4 -4,8 6,1 7,3 4 2 7 4 ESE 1037,4 12 0 0,0
13.02.2019 00:00:00 0,2 -0,9 -4,9 6,1 7,3 5 3 9 5 E 1037,1 11 0 0,0
12.02.2019 23:00:00 0,6 -1,3 -3,0 6,1 7,3 5 3 9 5 ESE 1037,2 15 0 0,0
12.02.2019 22:00:00 1,9 0,4 -2,4 6,1 7,3 4 2 13 7 E 1037,2 21 0 0,0
12.02.2019 21:00:00 2,4 0,5 -3,0 6,0 7,3 2 1 4 2 SE 1036,9 26 0 0,0
12.02.2019 20:00:00 3,0 0,7 -2,5 6,1 7,3 2 1 5 3 S 1037,0 32 0 0,0
12.02.2019 19:00:00 4,6 0,9 -0,9 6,0 7,3 3 2 8 4 SSE 1036,8 45 0 0,0
12.02.2019 18:00:00 6,6 1,7 4,7 6,0 7,3 6 4 10 5 SSW 1036,2 44 2 0,0
12.02.2019 17:00:00 7,8 2,0 8,0 6,0 7,3 5 3 10 6 WSW 1035,9 60 4 0,0
12.02.2019 16:00:00 8,2 2,0 9,6 6,0 7,3 4 2 8 5 WNW 1036,0 60 2 0,0
12.02.2019 15:00:00 8,0 1,8 8,6 6,1 7,3 5 3 13 7 W 1036,0 51 0 0,0
12.02.2019 14:00:00 7,8 1,2 9,0 6,1 7,3 9 5 19 10 NW 1036,1 58 18 0,0
12.02.2019 13:00:00 8,0 2,2 11,3 6,1 7,3 9 5 20 11 WSW 1036,4 34 60 0,0
12.02.2019 12:00:00 5,5 3,5 8,9 6,2 7,3 4 2 8 4 SE 1036,8 14 60 0,0
12.02.2019 11:00:00 2,4 2,3 2,5 6,2 7,3 4 2 6 3 ESE 1036,6 6 29 0,0
12.02.2019 10:00:00 0,8 0,5 0,2 6,3 7,3 0 0 4 2 N 1036,6 5 0 0,0
12.02.2019 09:00:00 0,1 -0,2 -0,2 6,3 7,3 0 0 4 2 N 1036,5 4,2 0 0,0
12.02.2019 08:00:00 -0,3 -0,6 -0,4 6,4 7,3 3 1 6 3 E 1035,7 2,7 0 0,0
12.02.2019 07:00:00 -0,6 -0,7 -1,1 6,4 7,3 2 1 4 2 SE 1035,7 5 0 0,0
12.02.2019 06:00:00 -1,4 -1,5 -4,9 6,4 7,3 4 2 10 5 WNW 1035,6 4,2 0 0,0
12.02.2019 05:00:00 -1,6 -1,9 -6,6 6,5 7,3 5 3 7 4 W 1035,5 0,2 0 0,0
12.02.2019 04:00:00 -1,5 -1,8 -5,9 6,5 7,3 0 0 5 3 N 1035,4 0,9 0 0,0
12.02.2019 03:00:00 -1,0 -1,1 -5,6 6,6 7,3 5 3 6 4 W 1035,4 2,3 0 0,0
12.02.2019 02:00:00 -2,0 -2,6 -5,5 6,6 7,2 0 0 5 3 N 1035,2 2,7 0 0,0
12.02.2019 01:00:00 -1,5 -2,3 -5,2 6,5 7,2 3 2 5 3 NNW 1034,8 0,5 0 0,0
12.02.2019 00:00:00 0,5 0,1 -4,2 6,6 7,3 4 2 6 3 W 1034,4 2,7 0 0,0
11.02.2019 23:00:00 1,3 0,9 -3,5 6,6 7,2 5 3 11 6 WNW 1034,0 8 0 0,0
11.02.2019 22:00:00 0,5 -0,2 -2,4 6,6 7,3 10 5 13 7 WNW 1033,4 15 0 0,0
11.02.2019 21:00:00 0,7 -0,5 -2,8 6,6 7,2 10 6 11 6 NW 1032,8 20 0 0,0
11.02.2019 20:00:00 1,9 0,4 -2,2 6,6 7,3 8 4 11 6 NW 1032,0 44 0 0,0
11.02.2019 19:00:00 3,2 0,6 -0,8 6,6 7,2 7 4 24 13 NNW 1031,1 60 0 0,0
11.02.2019 18:00:00 5,8 1,7 4,7 6,6 7,2 18 10 24 13 NW 1029,7 60 0 0,0
11.02.2019 17:00:00 8,0 2,2 7,3 6,5 7,2 18 10 26 14 NW 1028,7 45 36 0,0
11.02.2019 16:00:00 8,0 3,1 8,3 6,6 7,2 22 12 31 17 NNW 1027,7 53 5 0,0
11.02.2019 15:00:00 8,8 3,4 8,7 6,5 7,2 21 11 30 16 NW 1026,6 45 14 0,0
11.02.2019 14:00:00 7,9 3,2 9,2 6,6 7,2 16 9 34 18 NNW 1025,8 53 23 0,0
11.02.2019 13:00:00 7,7 4,5 7,2 6,6 7,2 19 10 27 15 NW 1024,9 53 2 0,0
11.02.2019 12:00:00 6,8 4,9 7,5 6,6 7,2 14 8 18 10 WNW 1023,8 35 6 0,0
11.02.2019 11:00:00 5,8 4,9 5,2 6,7 7,2 7 4 14 8 W 1022,5 18 7 0,0
11.02.2019 10:00:00 4,7 3,7 4,3 6,7 7,2 10 5 23 13 W 1021,2 15 0 0,0
11.02.2019 09:00:00 4,4 3,1 3,3 6,7 7,2 15 8 21 11 WSW 1019,8 20 0 0,0
11.02.2019 08:00:00 3,8 2,5 2,8 6,7 7,2 11 6 20 11 SW 1018,5 35 0 0,0
11.02.2019 07:00:00 3,6 2,4 2,6 6,8 7,2 12 6 21 12 WSW 1017,7 44 0 0,0
11.02.2019 06:00:00 3,3 1,7 1,6 6,8 7,1 14 7 25 13 WSW 1017,4 53 0 0,0
11.02.2019 05:00:00 3,8 1,7 1,0 6,8 7,1 16 8 32 17 W 1016,5 60 0 0,0
11.02.2019 04:00:00 2,3 1,1 0,0 6,8 7,1 9 5 17 9 WNW 1016,1 44 0 0,0
11.02.2019 03:00:00 2,7 1,2 0,4 6,9 7,1 10 5 16 9 WSW 1015,8 38 0 0,0
11.02.2019 02:00:00 3,0 1,2 0,5 6,9 7,1 12 7 20 11 WSW 1015,2 43 0 0,0
11.02.2019 01:00:00 3,5 0,7 1,5 6,9 7,1 9 5 28 15 SW 1014,1 45 0 0,0
11.02.2019 00:00:00 4,5 1,7 3,1 6,9 7,1 19 10 27 15 W 1012,8 49 0 0,0
10.02.2019 23:00:00 4,5 1,9 3,2 6,9 7,1 14 8 28 15 W 1012,1 45 0 0,0
10.02.2019 22:00:00 4,7 2,1 2,7 6,9 7,1 18 10 29 15 W 1010,8 49 0 0,0
10.02.2019 21:00:00 5,0 2,2 3,7 6,9 7,1 15 8 40 22 WSW 1009,7 55 0 0,0
10.02.2019 20:00:00 5,8 3,1 4,3 6,9 7,1 27 15 51 28 W 1008,2 60 0 0,4
10.02.2019 19:00:00 5,1 2,8 4,3 6,8 7,0 23 13 51 27 WNW 1006,7 50 0 0,2
10.02.2019 18:00:00 6,4 3,9 5,7 6,8 7,0 30 16 55 30 W 1004,6 40 0 0,0

tt = Température de l'air
td = dewpoint
tt 5cm = Température de l'air 5cm
tt -20cm = Température de l'air -20cm
tt -100cm = Température de l'air -100cm
ff = Vitesse du vent
fx = gusts
dd = Direction du vent
ppp = reduced air pressure
vv = visibility
sd = Ensoleillement
rr = Quantités de précipitations

stations d'obs. à proximité